Volver al catálogo

ICEYE-X49

ActivoCienciaVLEO
NORAD 62384·PAYLOAD·🇫🇮 Finland

Lanzado Dec 21, 2024 desde Vandenberg Space Force Base

Loading…

Próximos Pases (próximas 24 horas)

TLE

ActualizadoSource: Space-Track

Época: Sep 14, 2026, 22:28 UTC

1 62384U 24247H   26257.93644201  .00004846  00000-0  28043-3 0  9995
2 62384  44.9961 237.9380 0000671 286.4491  73.6313 15.13462307 95771

Sigue ICEYE-X49 en tiempo real con AllMySat

Download on the App Store